Tracking 28766 objects as of 14-Apr-2024
HD Live streaming from Space Station
objects crossing your sky now

GRUS-1C

Track GRUS-1C now!
10-day predictions


NORAD ID: 47933
Int'l Code: 2021-022B
Perigee: 573.1 km
Apogee: 600.4 km
Inclination: 97.6 °
Period: 96.3 minutes
Semi major axis: 6957 km
RCS: Unknown
Launch date: March 22, 2021
Source: Japan (JPN)
Launch site: TYURATAM MISSILE AND SPACE COMPLEX (TTMTR)
Your satellite tracking list
Your tracking list is empty




NASA's NSSDC Master Catalog

Two Line Element Set (TLE):
1 47933U 21022B   24104.88070648  .00001478  00000-0  13668-3 0  9992
2 47933  97.6334 359.5258 0019598 108.6125 251.7227 14.95900219167002
Source of the keplerian elements: AFSPC